Content
SEND FEEDBACK

Daily
Averages
Monthly
Summary
United States of America

ALPINE MEADOWS, CALIFORNIA


Home > North America > United States > California
Elevation: 6230 feet     Latitude: 39 12N     Longitude: 120 14W

WEATHER
 
SELECT A DAY
Number of Records: 282,323;   Date Range: 1/1/95 - 7/29/14
 
SHARE

PRINT THIS DATA

[ ← Previous Day ]
WEATHER ALMANAC - SEPTEMBER 14, 2013
[ Next Day → ]
[ °C ]   °F
Weather ElementAverageHighLow
Temperature53.6 °F78.8 °F (12:50 pm)37.4 °F (6:45 am)
Dewpoint44.3 °F51.8 °F (4:50 pm)37.4 °F (6:45 am)
Humidity76.5 %100 % (3:55 am)24 % (1:45 pm)
Barometer30.07 in30.11 in (7:45 am)30.02 in (4:50 pm)
Wind Speed2.4 mph11.5 mph (6:35 pm)
Weather ElementAverage
Visibility7.9 mi
Wind DirectionENE (71.2 °)

Weather ElementTotal
Precipitation---
Heating Degree Days6.9 (Base 65)
Growing Degree Days8.1 (Base 50)
Averaged from 50 records on September 14, 2013
WEATHER CONDITIONS BREAKOUT
WIND DIRECTION BREAKOUT
WEATHER BY HOUR - SEPTEMBER 14, 2013
[ °C ]   °F
Local TimeTemperatureDewpointHumidityBarometerVisibilityWind DirectionWind SpeedGust SpeedPrecipitationEventsConditions
12:35 AM46.4 °F44.6 °F93 %30.10 in10.0 miCalmClear
12:55 AM48.2 °F44.6 °F87 %30.10 in10.0 miSSE (150°)3.5 mphClear
1:15 AM44.6 °F42.8 °F93 %30.10 in10.0 miCalmClear
1:35 AM46.4 °F44.6 °F93 %30.10 in10.0 miCalmClear
1:55 AM44.6 °F41.0 °F87 %30.09 in10.0 miCalmClear
2:15 AM44.6 °F42.8 °F93 %30.09 in10.0 miCalmClear
2:35 AM44.6 °F42.8 °F93 %30.09 in3.0 miCalmClear
2:55 AM42.8 °F41.0 °F93 %30.09 in1.0 miCalmClear
3:15 AM44.6 °F42.8 °F93 %30.09 in0.5 miCalmFogFog
3:35 AM44.6 °F42.8 °F93 %30.09 in10.0 miCalmClear
3:55 AM39.2 °F39.2 °F100 %30.09 in0.5 miCalmFogFog
4:15 AM41.0 °F41.0 °F100 %30.09 in0.2 miCalmFogFog
4:35 AM41.0 °F41.0 °F100 %30.09 in0.8 miCalmMist
4:55 AM41.0 °F41.0 °F100 %30.09 in6.0 miCalmClear
5:15 AM39.2 °F39.2 °F100 %30.09 in0.2 miCalmFogFog
5:35 AM41.0 °F41.0 °F100 %30.09 in0.8 miCalmMist
5:55 AM39.2 °F39.2 °F100 %30.09 in0.2 miCalmFogFog
6:15 AM39.2 °F39.2 °F100 %30.09 in0.2 miCalmFogFog
6:35 AM39.2 °F39.2 °F100 %30.10 in0.2 miCalmFogFog
6:45 AM37.4 °F37.4 °F100 %30.10 in10.0 miCalmPartly Cloudy
7:45 AM42.8 °F42.8 °F100 %30.11 in10.0 miCalmClear
8:55 AM50.0 °F44.6 °F82 %30.11 in10.0 miCalmClear
9:55 AM59.0 °F46.4 °F63 %30.10 in10.0 miNorth (10°)3.5 mphPartly Cloudy
10:45 AM66.2 °F46.4 °F49 %30.09 in10.0 miCalmScattered Clouds
11:55 AM75.2 °F37.4 °F25 %30.07 in10.0 miNW (320°)3.5 mphScattered Clouds
12:50 PM78.8 °F41.0 °F26 %30.05 in10.0 miSSW (200°)9.2 mphMostly Cloudy
1:45 PM78.8 °F39.2 °F24 %30.03 in10.0 miWSW (240°)4.6 mphMostly Cloudy
2:55 PM75.2 °F46.4 °F36 %30.03 in10.0 miWest (280°)8.1 mphMostly Cloudy
3:55 PM71.6 °F44.6 °F38 %30.03 in10.0 miSSE (160°)6.9 mphMostly Cloudy
4:50 PM66.2 °F51.8 °F60 %30.02 in10.0 miSSE (150°)6.9 mphMostly Cloudy
5:45 PM71.6 °F50.0 °F46 %30.02 in10.0 miSSE (160°)3.5 mphMostly Cloudy
5:55 PM71.6 °F50.0 °F46 %30.02 in10.0 miCalmClear
6:15 PM71.6 °F50.0 °F46 %30.02 in10.0 miCalmClear
6:35 PM73.4 °F44.6 °F36 %30.02 in10.0 miWest (280°)11.5 mphClear
6:55 PM71.6 °F44.6 °F38 %30.02 in10.0 miWest (260°)9.2 mphThunderstormClear
7:15 PM64.4 °F50.0 °F59 %30.03 in10.0 miSSE (150°)4.6 mphClear
7:35 PM59.0 °F50.0 °F72 %30.04 in10.0 miSE (130°)6.9 mphClear
7:55 PM59.0 °F48.2 °F67 %30.04 in10.0 miSSE (160°)5.8 mphClear
8:15 PM57.2 °F50.0 °F77 %30.05 in10.0 miSE (140°)8.1 mphPartly Cloudy
8:35 PM55.4 °F48.2 °F77 %30.05 in10.0 miSSE (160°)3.5 mphPartly Cloudy
8:55 PM55.4 °F48.2 °F77 %30.06 in10.0 miSE (140°)6.9 mphClear
9:15 PM53.6 °F48.2 °F82 %30.06 in10.0 miSSE (160°)5.8 mphClear
9:35 PM51.8 °F48.2 °F88 %30.06 in10.0 miCalmClear
9:55 PM50.0 °F46.4 °F87 %30.06 in10.0 miCalmClear
10:15 PM50.0 °F46.4 °F87 %30.06 in10.0 miCalmClear
10:35 PM50.0 °F44.6 °F82 %30.06 in10.0 miSSE (160°)4.6 mphClear
10:55 PM50.0 °F44.6 °F82 %30.06 in10.0 miSSE (150°)4.6 mphClear
11:15 PM50.0 °F46.4 °F87 %30.06 in10.0 miCalmClear
11:35 PM50.0 °F44.6 °F82 %30.06 in10.0 miCalmClear
11:55 PM50.0 °F46.4 °F87 %30.06 in10.0 miCalmClear
Hourly data recorded from KTRK, located miles away from Alpine Meadows, California







STORIES FROM OUR PARTNERS